2012 HC2

Initial reported observation by Lincoln Laboratory ETS, New Mexico on 2012-04-18.
(Discoverer will be defined when the object is numbered. See this note on how discoverers are determined.)

Orbit

Orbit type: Mars-crosser

Note: WebGL enabled browser required.

epoch2023-09-13.0
epoch JD2460200.5
perihelion date2023-02-03.83759
perihelion JD2459979.33759
argument of perihelion (°)169.38390
ascending node (°)103.95298
inclination (°)21.66522
eccentricity0.5018264
perihelion distance (AU)1.5131255
Tisserand w.r.t. Jupiter2.9
ΔV w.r.t. Earth (km/sec)10.1
semimajor axis (AU)3.0373457
mean anomaly (°)41.17881
mean daily motion (°/day)0.18619260
aphelion distance (AU)4.562
period (years)5.29
P-vector [x]0.07083699
P-vector [y]-0.94010164
P-vector [z]-0.33345318
Q-vector [x]0.93091926
Q-vector [y]0.18238159
Q-vector [z]-0.31642739
absolute magnitude16.99
phase slope0.15
uncertainty0
referenceMPO 781554
observations used365
oppositions5
arc length (days)5900
first opposition used2007
last opposition used2023
residual rms (arc-secs)0.58
perturbers coarse indicatorM-v
perturbers precise indicator003Ek
first observation date used2007-09-09.0
last observation date used2023-11-04.0
computer nameMPCLINUX
JD of orbit computation2457894.972808
perihelion JD uncertainty (days)1.0913E-04
argument of perihelion uncertainty (°)3.0675E-05
ascending node uncertainty (°)1.1878E-05
inclination uncertainty (°)7.8962E-06
eccentricity uncertainty 1.0413E-07
perihelion distance uncertainty (AU)3.3662E-07
Minimum Orbit Intersection Distances (in AU)
for orbit epoch: 2460200.5, reference: E2023-V24
Mercury1.05838
Venus0.78981
Earth0.49996
Mars0.10057
Jupiter0.64412
Saturn4.50426
Uranus14.3338
Neptune25.5114

Observations

364 total observations over interval: 2007 09 09.65931 – 2023 11 04.398132
These data are available for download (format description).

Date (UT) J2000 RA J2000 Dec Magn Location Ref
2007 09 09.65931 01 14 22.77 -32 31 53.8 20.0 V E12 – Siding Spring Survey MPS 426561
2007 09 09.66583 01 14 22.34 -32 31 58.0 19.8 V E12 – Siding Spring Survey MPS 426561
2007 09 09.67236 01 14 22.05 -32 32 01.1 19.2 V E12 – Siding Spring Survey MPS 426561
2007 09 09.67891 01 14 21.62 -32 32 06.2 19.9 V E12 – Siding Spring Survey MPS 426561
2012 04 18.34751 16 55 12.73 +14 59 16.7 18.8   704 – Lincoln Laboratory ETS, New Mexico MPS 421948
2012 04 18.35850 16 55 13.08 +14 59 20.1 19.0   704 – Lincoln Laboratory ETS, New Mexico MPS 421948
2012 04 18.36938 16 55 13.56 +14 59 22.0 19.1   704 – Lincoln Laboratory ETS, New Mexico MPS 421948
2012 04 18.38029 16 55 13.97 +14 59 26.6 19.4   704 – Lincoln Laboratory ETS, New Mexico MPS 421948
2012 04 18.39121 16 55 14.37 +14 59 30.3 19.1   704 – Lincoln Laboratory ETS, New Mexico MPS 421948
2012 04 19.40456 16 55 53.28 +15 04 41.2 18.6 R H36 – Sandlot Observatory, Scranton MPS 421948
2012 04 19.41057 16 55 53.49 +15 04 42.6 18.7 R H36 – Sandlot Observatory, Scranton MPS 421948
2012 04 19.41961 16 55 53.86 +15 04 45.5 18.5 R H36 – Sandlot Observatory, Scranton MPS 421948
2012 04 19.63185 16 56 01.93 +15 06 01.2 18.9 R 474 – Mount John Observatory, Lake Tekapo MPS 421948
2012 04 19.63397 16 56 02.00 +15 06 01.9 18.8 R 474 – Mount John Observatory, Lake Tekapo MPS 421948
2012 04 19.63608 16 56 02.07 +15 06 02.4 18.8 R 474 – Mount John Observatory, Lake Tekapo MPS 421948
2012 04 19.63819 16 56 02.13 +15 06 03.1 18.9 R 474 – Mount John Observatory, Lake Tekapo MPS 421948
2012 04 20.35095 16 56 28.40 +15 09 18.6 18.5   718 – Tooele MPS 421948
2012 04 20.35983 16 56 28.70 +15 09 21.4 18.7   718 – Tooele MPS 421948
2012 04 20.37658 16 56 29.27 +15 09 26.6 18.5   718 – Tooele MPS 421948
2012 04 20.38496 16 56 29.54 +15 09 28.8 18.6   718 – Tooele MPS 421948
2012 04 20.39166 16 56 29.79 +15 09 32.1 18.3 R 682 – Kanab MPS 421948
2012 04 20.41483 16 56 30.45 +15 09 39.5 18.7   704 – Lincoln Laboratory ETS, New Mexico MPS 421948
2012 04 20.42616 16 56 30.84 +15 09 42.0 18.5   704 – Lincoln Laboratory ETS, New Mexico MPS 421948
2012 04 20.43541 16 56 31.17 +15 09 44.2 18.5 R 682 – Kanab MPS 421948
2012 04 20.43874 16 56 31.23 +15 09 45.7 18.7   704 – Lincoln Laboratory ETS, New Mexico MPS 421948
2012 04 20.45016 16 56 31.63 +15 09 48.8 18.8   704 – Lincoln Laboratory ETS, New Mexico MPS 421948
2012 04 20.46150 16 56 31.97 +15 09 52.4 19.2   704 – Lincoln Laboratory ETS, New Mexico MPS 421948
2012 04 27.96215 17 00 05.62 +15 37 26.7 18.5 V C73 – Galati Observatory MPS 422916
2012 04 27.96700 17 00 05.71 +15 37 27.3 18.4 V C73 – Galati Observatory MPS 422916
2012 04 27.97185 17 00 05.78 +15 37 28.4 18.4 V C73 – Galati Observatory MPS 422916
2012 05 04.97488 17 01 44.00 +15 44 21.9 18.2 R 213 – Observatorio Montcabre MPS 423784
2012 05 05.00226 17 01 44.09 +15 44 21.0 18.1 R 213 – Observatorio Montcabre MPS 423784
2012 05 05.02965 17 01 44.19 +15 44 19.8 18.3 R 213 – Observatorio Montcabre MPS 423784
2012 05 10.03249 17 01 52.60 +15 34 27.7 17.7 R 160 – Castelmartini MPS 423784
2012 05 10.03528 17 01 52.59 +15 34 27.1 18.1 R 160 – Castelmartini MPS 423784
2012 05 10.03806 17 01 52.55 +15 34 26.6 17.9 R 160 – Castelmartini MPS 423784
2012 05 11.97167 17 01 42.41 +15 26 44.5 17.5 R 160 – Castelmartini MPS 424022
2012 05 11.97448 17 01 42.37 +15 26 43.8 17.6 R 160 – Castelmartini MPS 424022
2012 05 11.97735 17 01 42.35 +15 26 42.9 18.1 R 160 – Castelmartini MPS 424022
2012 05 12.38653 17 01 38.91 +15 24 49.5 18.3 V 691 – Steward Observatory, Kitt Peak-Spacewatch MPS 424022
2012 05 12.40447 17 01 38.68 +15 24 44.3 18.3 V 691 – Steward Observatory, Kitt Peak-Spacewatch MPS 424022
2012 05 12.42243 17 01 38.45 +15 24 39.0 18.3 V 691 – Steward Observatory, Kitt Peak-Spacewatch MPS 424022
2012 05 12.95720 17 01 34.26 +15 21 52.6 17.4 V C39 – Nijmegen MPS 424022
2012 05 12.97954 17 01 34.00 +15 21 45.7 17.5 V C39 – Nijmegen MPS 424022
2012 05 12.99740 17 01 33.78 +15 21 40.2 17.6 V C39 – Nijmegen MPS 424022
2012 05 16.42526 17 00 49.70 +14 59 40.6 18.3 V 691 – Steward Observatory, Kitt Peak-Spacewatch MPS 424022
2012 05 16.44304 17 00 49.34 +14 59 32.3 18.4 V 691 – Steward Observatory, Kitt Peak-Spacewatch MPS 424022
2012 05 16.46083 17 00 48.98 +14 59 24.0 18.3 V 691 – Steward Observatory, Kitt Peak-Spacewatch MPS 424022
2012 05 16.92385 17 00 42.17 +14 55 42.0 17.4   C60 – Argelander Institute for Astronomy Obs., Bonn MPS 425048
2012 05 16.92505 17 00 42.12 +14 55 41.6 18.4   C60 – Argelander Institute for Astronomy Obs., Bonn MPS 425048
2012 05 16.92946 17 00 42.02 +14 55 39.5 18.2   C60 – Argelander Institute for Astronomy Obs., Bonn MPS 425048
2012 05 16.93467 17 00 41.94 +14 55 37.1 18.3   C60 – Argelander Institute for Astronomy Obs., Bonn MPS 425048
2012 05 17.04579 17 00 39.60 +14 54 45.0 18.1 R 160 – Castelmartini MPS 426058
2012 05 17.04793 17 00 39.54 +14 54 43.6 17.8 R 160 – Castelmartini MPS 426058
2012 05 17.04995 17 00 39.51 +14 54 42.9 17.7 R 160 – Castelmartini MPS 426058
2012 05 18.03993 17 00 21.56 +14 46 18.4 17.5 R 160 – Castelmartini MPS 425048
2012 05 18.04243 17 00 21.53 +14 46 17.4 17.3 R 160 – Castelmartini MPS 425048
2012 05 18.04491 17 00 21.50 +14 46 15.9 17.5 R 160 – Castelmartini MPS 425048
2012 05 18.26452 17 00 17.60 +14 44 19.0 18.2 R H45 – Arkansas Sky Obs., Petit Jean Mountain South MPS 424022
2012 05 18.26571 17 00 17.59 +14 44 18.1 18.1 R H45 – Arkansas Sky Obs., Petit Jean Mountain South MPS 424022
2012 05 18.26824 17 00 17.50 +14 44 17.4 18.2 R H45 – Arkansas Sky Obs., Petit Jean Mountain South MPS 424022
2012 05 18.27862 17 00 17.24 +14 44 11.8 18.1 R H45 – Arkansas Sky Obs., Petit Jean Mountain South MPS 424022
2012 05 18.28104 17 00 17.19 +14 44 10.5 18.2 R H45 – Arkansas Sky Obs., Petit Jean Mountain South MPS 424022
2012 05 18.28281 17 00 17.14 +14 44 09.4 18.1 R H45 – Arkansas Sky Obs., Petit Jean Mountain South MPS 424022
2012 05 18.31194 17 00 16.60 +14 43 54.0 17.9   704 – Lincoln Laboratory ETS, New Mexico MPS 425048
2012 05 18.32308 17 00 16.34 +14 43 48.1 17.9   704 – Lincoln Laboratory ETS, New Mexico MPS 425048
2012 05 18.33418 17 00 16.05 +14 43 41.7 18.1   704 – Lincoln Laboratory ETS, New Mexico MPS 425048
2012 05 18.34529 17 00 15.78 +14 43 36.0 18.0   704 – Lincoln Laboratory ETS, New Mexico MPS 425048
2012 05 18.94176 17 00 03.92 +14 37 57.3 17.8 R A98 – Observatory Mazzarot-1, Baran' MPS 425048
2012 05 18.94402 17 00 03.82 +14 37 56.1 17.8 R A98 – Observatory Mazzarot-1, Baran' MPS 425048
2012 05 18.94628 17 00 03.82 +14 37 54.5 18.0 R A98 – Observatory Mazzarot-1, Baran' MPS 425048
2012 05 18.94855 17 00 03.73 +14 37 53.6 17.7 R A98 – Observatory Mazzarot-1, Baran' MPS 425048
2012 05 19.03072 17 00 01.93 +14 37 08.4 17.8 R 160 – Castelmartini MPS 425048
2012 05 19.03346 17 00 01.87 +14 37 06.9 17.8 R 160 – Castelmartini MPS 425048
2012 05 19.03470 17 00 01.83 +14 37 06.1 18.1 R 160 – Castelmartini MPS 425048
2012 05 19.44801 16 59 53.351 +14 33 07.51 18.2 g F51 – Pan-STARRS 1, Haleakala MPS 425048
2012 05 19.45901 16 59 53.057 +14 33 01.00 18.2 g F51 – Pan-STARRS 1, Haleakala MPS 425048
2012 05 19.55227 16 59 50.550 +14 32 04.69 17.7 r F51 – Pan-STARRS 1, Haleakala MPS 425048
2012 05 23.36576 16 58 15.86 +13 47 42.0 17.9 R H45 – Arkansas Sky Obs., Petit Jean Mountain South MPS 425048
2012 05 23.36756 16 58 15.79 +13 47 40.5 18.0 R H45 – Arkansas Sky Obs., Petit Jean Mountain South MPS 425048
2012 05 23.36893 16 58 15.75 +13 47 39.3 18.0 R H45 – Arkansas Sky Obs., Petit Jean Mountain South MPS 425048
2012 05 23.37034 16 58 15.73 +13 47 38.3 18.0 R H45 – Arkansas Sky Obs., Petit Jean Mountain South MPS 425048
2012 05 23.37151 16 58 15.88 +13 47 38.4 18.0 V 691 – Steward Observatory, Kitt Peak-Spacewatch MPS 425048
2012 05 23.37203 16 58 15.65 +13 47 37.0 18.1 R H45 – Arkansas Sky Obs., Petit Jean Mountain South MPS 425048
2012 05 23.37358 16 58 15.61 +13 47 35.6 17.9 R H45 – Arkansas Sky Obs., Petit Jean Mountain South MPS 425048
2012 05 23.38928 16 58 15.30 +13 47 24.2 18.0 V 691 – Steward Observatory, Kitt Peak-Spacewatch MPS 425048
